FLOCK 3K-11 (43904 NORAD) Tracking and Keplerian Element Data

This shows tracking and keplerian element data for the satellite.

Feedback or suggestion? Click here.




ElementValue
Catalog43904
NameFLOCK 3K-11
Epoch Orbit314
Epoch Day16.70256405
Epoch Year2019
RAAN286.0486
Inclination97.2997
Eccentricity0.0022719
Argument of Perigee167.7777
Mean Anonmoly192.4017
Mean Motion15.23771463
Decay Rate1.627E-05
L11 43904U 18111AE 19016.70256405 .00001627 00000-0 70086-4 0 9999
L22 43904 97.2997 286.0486 0022719 167.7777 192.4017 15.23771463 3143

Live tracking and technical data element details for FLOCK 3K-11 (NORAD 43904). FLOCK 3K-11 can be tracked NOW for your location showing map with azimuth and elevation plus other details from your city location.

Track the satellite on the map from your city or location and see movement details for azimuth, elevation, latitude, longitude, range, height, and movement on the map or in text.







IsCatalogInMostPopularTable: catalog: 43904, numindb: 17
Update: records affected: 1



GetName: 43904 FLOCK 3K-11

Hit Count: updated at: Thu, 17 Jan 2019 14:39:56 GMT